This demonstration page uses our WeatherBlox Daily Observations layout. Learn more.

Left ArrowRight Arrow

34.16533, -84.80231

Hourly Observations for August 1, 2017

Temp ( °F °C ) Dew Point ( °F °C ) Humidity (%) Winds ( mph kmh ) Pressure ( in mb ) Visibility ( mi km ) Precip ( " mm )
12:53 am 00:53 Clear 66 18.9 66 18.9 100 100 Calm 30.06 1018 10 16 0.00 0.00
1:53 am 01:53 Clear 65 18.3 65 18.3 100 100 Calm 30.06 1018 10 16 0.00 0.00
2:53 am 02:53 Clear 64 17.8 64 17.8 100 100 Calm 30.05 1018 10 16 0.00 0.00
3:53 am 03:53 Clear 64 17.8 64 17.8 100 100 Calm 30.05 1018 10 16 0.00 0.00
4:53 am 04:53 Clear 63 17.2 63 17.2 100 100 Calm 30.06 1018 7 11 0.00 0.00
5:53 am 05:53 Clear 62 16.7 62 16.7 100 100 Calm 30.06 1018 9 14 0.00 0.00
6:53 am 06:53 Sunny 62 16.7 62 16.7 100 100 Calm 30.07 1018 7 11 0.00 0.00
7:53 am 07:53 Sunny 65 18.3 65 18.3 100 100 Calm 30.09 1019 10 16 0.00 0.00
8:53 am 08:53 Sunny 70 21.1 68 20 93 93 Calm 30.10 1019 10 16 0.00 0.00
9:53 am 09:53 Sunny 74 23.3 67 19.4 79 79 Calm 30.11 1020 10 16 0.00 0.00
10:53 am 10:53 Sunny 79 26.1 67 19.4 67 67 VRB 5 7 30.10 1019 10 16 0.00 0.00
11:53 am 11:53 Sunny 83 28.3 64 17.8 53 53 VRB 3 6 30.10 1019 10 16 0.00 0.00
12:53 pm 12:53 Sunny 84 28.9 58 14.4 41 41 VRB 3 6 30.09 1019 10 16 0.00 0.00
1:53 pm 13:53 Sunny 86 30 59 15 40 40 ENE 5 7 30.08 1019 10 16 0.00 0.00
2:53 pm 14:53 Sunny 86 30 59 15 40 40 SE 5 7 30.06 1018 10 16 0.00 0.00
3:53 pm 15:53 Mostly Sunny 87 30.6 61 16.1 42 42 Calm 30.05 1018 10 16 0.00 0.00
4:53 pm 16:53 Sunny 87 30.6 61 16.1 42 42 VRB 3 6 30.03 1017 10 16 0.00 0.00
5:53 pm 17:53 Sunny 86 30 63 17.2 46 46 VRB 5 7 30.02 1017 10 16 0.00 0.00
6:53 pm 18:53 Sunny 84 28.9 65 18.3 53 53 SSE 3 6 30.03 1017 10 16 0.00 0.00
7:53 pm 19:53 Sunny 78 25.6 71 21.7 79 79 Calm 30.03 1017 10 16 0.00 0.00
8:53 pm 20:53 Clear 74 23.3 71 21.7 91 91 Calm 30.04 1017 10 16 0.00 0.00
9:53 pm 21:53 Clear 73 22.8 69 20.6 87 87 Calm 30.04 1017 10 16 0.00 0.00
10:53 pm 22:53 Clear 70 21.1 67 19.4 90 90 Calm 30.06 1018 10 16 0.00 0.00
11:53 pm 23:53 Clear 69 20.6 68 20 96 96 Calm 30.07 1018 10 16 0.00 0.00

Powered by AerisWeather